Weather History for West Memphis, AR

Change the Weather History Date:

Tuesday, March 19, 2013

  Actual Average Record
Temperature  
Mean Temperature 28 °F -  
Max Temperature 55 °F 65 °F 81 °F (1982)
Min Temperature 0 °F 45 °F 0 °F (2013)
Degree Days  
Heating Degree Days 38    
Moisture  
Dew Point 32 °F    
Average Humidity 75    
Maximum Humidity 100    
Minimum Humidity 33    
Precipitation  
Precipitation 0.00 in - - ()
Sea Level Pressure  
Sea Level Pressure 30.12 in    
Wind  
Wind Speed 3 mph (NNE)    
Max Wind Speed 12 mph    
Max Gust Speed 17 mph    
Visibility 7 miles    
Events      
Averages and records for this station are not official NWS values.
T = Trace of Precipitation, MM = Missing Value Source: NWS Daily Summary

Daily Weather History Graph

Daily Weather History Graph

Search for Another Location

Airport:

Trip Planner

Search our weather history database for the weather conditions in past years. The results will help you decide how hot, cold, wet, or windy it might be!

Date:

Astronomy

Mar. 19, 2013 Rise Set
Actual Time 7:05 AM CDT 7:12 PM CDT
Civil Twilight 6:40 AM CDT 7:37 PM CDT
Nautical Twilight 6:10 AM CDT 8:06 PM CDT
Astronomical Twilight 5:41 AM CDT 8:36 PM CDT
Moon 12:08 PM CDT (3/19) 1:46 AM CDT (3/19)
Length of Visible Light 12h 57m
Length of Day
12h 06m
Waxing Crescent, 50% of the Moon is Illuminated
Mar 19
Waxing Crescent
Mar 19
First Quarter
Mar 27
Full
Apr 2
Last Quarter
Apr 10
New

Hourly Weather History & Observations

Time (CDT) Temp. Windchill Dew Point Humidity Pressure Visibility Wind Dir Wind Speed Gust Speed Precip Events Conditions
12:53 AM 39.9 °F - 39.0 °F 97% 30.07 in 10.0 mi Calm Calm - N/A   Clear
1:53 AM 37.0 °F - 37.0 °F 100% 30.09 in 2.0 mi Calm Calm - N/A   Clear
2:05 AM 37.4 °F - 37.4 °F 100% 30.08 in 10.0 mi Calm Calm - N/A   Clear
2:53 AM 35.1 °F 30.1 °F 35.1 °F 100% 30.06 in 7.0 mi SSE 5.8 mph - N/A   Clear
3:00 AM 35.6 °F 31.7 °F 35.6 °F 100% 30.05 in 5.0 mi SSE 4.6 mph - N/A   Partly Cloudy
3:36 AM 35.6 °F - 35.6 °F 100% 30.05 in 1.8 mi Calm Calm - N/A   Clear
3:46 AM 37.4 °F - 37.4 °F 100% 30.06 in 2.5 mi Calm Calm - N/A   Clear
3:53 AM 37.0 °F - 37.0 °F 100% 30.06 in 6.0 mi Calm Calm - N/A   Clear
4:24 AM 37.4 °F - 35.6 °F 93% 30.05 in 2.5 mi Calm Calm - N/A   Clear
4:42 AM -0.4 °F -8.3 °F -0.4 °F 100% 30.04 in 8.0 mi ENE 3.5 mph - N/A   Clear
4:53 AM 36.0 °F - 35.1 °F 97% 30.05 in 9.0 mi Calm Calm - N/A   Clear
5:51 AM 35.6 °F - 35.6 °F 100% 30.07 in 1.5 mi Calm Calm - N/A   Clear
5:53 AM 35.1 °F - 35.1 °F 100% 30.08 in 1.0 mi Calm Calm - N/A   Clear
6:01 AM 35.6 °F - 33.8 °F 93% 30.07 in 0.8 mi Calm Calm - N/A   Clear
6:08 AM 35.6 °F - 35.6 °F 100% 30.08 in 1.8 mi Calm Calm - N/A   Clear
6:20 AM 33.8 °F - 33.8 °F 100% 30.08 in 0.8 mi Calm Calm - N/A   Clear
6:32 AM 35.6 °F 31.7 °F 35.6 °F 100% 30.08 in 1.5 mi NNW 4.6 mph - N/A   Clear
6:35 AM 35.6 °F 31.7 °F 35.6 °F 100% 30.08 in 3.0 mi NNW 4.6 mph - N/A   Clear
6:53 AM 36.0 °F 31.1 °F 35.1 °F 97% 30.09 in 10.0 mi North 5.8 mph - N/A   Clear
7:53 AM 39.9 °F 33.4 °F 35.1 °F 83% 30.13 in 10.0 mi North 10.4 mph - N/A   Clear
8:53 AM 43.0 °F 38.8 °F 35.1 °F 74% 30.15 in 10.0 mi NE 6.9 mph - N/A   Unknown
9:53 AM 46.9 °F - 34.0 °F 61% 30.18 in 10.0 mi NNE 11.5 mph - N/A   Unknown
10:53 AM 48.0 °F - 30.9 °F 52% 30.21 in 10.0 mi NNE 10.4 mph - N/A   Unknown
11:53 AM 52.0 °F - 30.9 °F 45% 30.21 in 10.0 mi Variable 5.8 mph - N/A   Partly Cloudy
12:53 PM 55.0 °F - 30.0 °F 38% 30.20 in 10.0 mi NNE 8.1 mph - N/A   Clear
1:53 PM 55.0 °F - 27.0 °F 34% 30.20 in 10.0 mi North 6.9 mph - N/A   Clear
2:53 PM 55.0 °F - 28.0 °F 35% 30.18 in 10.0 mi North 6.9 mph 17.3 mph N/A   Clear
3:53 PM 55.0 °F - 26.1 °F 33% 30.15 in 10.0 mi NE 9.2 mph - N/A   Clear
4:53 PM 55.0 °F - 26.1 °F 33% 30.14 in 10.0 mi NNE 11.5 mph - N/A   Mostly Cloudy
5:53 PM 53.1 °F - 27.0 °F 37% 30.13 in 10.0 mi NNE 10.4 mph - N/A   Mostly Cloudy
6:53 PM 51.1 °F - 28.9 °F 43% 30.15 in 10.0 mi North 8.1 mph - N/A   Overcast
7:53 PM 48.9 °F - 28.0 °F 44% 30.17 in 10.0 mi North 9.2 mph - N/A   Mostly Cloudy
8:53 PM 48.0 °F - 30.0 °F 50% 30.18 in 10.0 mi NNE 8.1 mph - N/A   Partly Cloudy
9:53 PM 46.9 °F - 28.9 °F 50% 30.19 in 10.0 mi NNE 8.1 mph - N/A   Mostly Cloudy
10:53 PM 44.1 °F 40.8 °F 28.9 °F 55% 30.20 in 10.0 mi NNE 5.8 mph - N/A   Clear
11:53 PM 43.0 °F 40.3 °F 28.9 °F 58% 30.20 in 10.0 mi NNE 4.6 mph - N/A   Clear